Regional Weather Roundup
Issued by NWS Jackson, KY

Home | Current Version | Previous Version | Graphics & Text | Print | Product List | Glossary On
Versions: 1 2 3 4 5 6 7 8 9 10 11 12 13 14 15 16 17 18 19 20 21 22 23 24 25 26 27 28 29 30 31 32 33 34 35 36 37 38 39 40 41 42 43 44 45 46 47 48 49 50
861
ASUS43 KJKL 240810
RWRJKL

EAST KENTUCKY HOURLY WEATHER ROUNDUP
NATIONAL WEATHER SERVICE JACKSON KY
300 AM EST FRI NOV 24 2017

NOTE: "FAIR" INDICATES FEW OR NO CLOUDS BELOW 12,000 FEET WITH
NO SIGNIFICANT WEATHER AND/OR OBSTRUCTIONS TO VISIBILITY.

* THESE REPORTS ARE NOT UNDER NWS QUALITY CONTROL AND MAY NOT
  REPORT WEATHER SUCH AS PRECIPITATION AND FOG.

KYZ079-080-083-085-087-088-110-112-115-119-120-240900
...EASTERN KENTUCKY...

CITY           SKY/WX    TMP DP  RH WIND       PRES   REMARKS
JACKSON        CLEAR     34  21  59 S3        30.00F
LONDON         CLOUDY    29  23  78 CALM      30.02S
SOMERSET*      CLEAR     28  25  86 CALM      30.05S
MONTICELLO*    CLEAR     24  22  91 W5        30.05S WCI  18
WILLIAMSBURG*  CLOUDY    28  27  93 CALM      30.03S
MIDDLESBORO*   CLEAR     28  27  96 CALM      30.07S
HARLAN APT*    SUNNY     30  27  86 CALM      30.05S
PIKE CO APT*     N/A     33  23  67 SE6       30.02F WCI  27
BIG SANDY APT* SUNNY     32  25  75 SE6       30.02F WCI  26
MOREHEAD APT*  CLOUDY    30  21  69 CALM      30.04R
$$

KYZ035-036-041-042-044-050-067-078-099-240900
...CENTRAL KENTUCKY...

CITY           SKY/WX    TMP DP  RH WIND       PRES   REMARKS
MT STERLING*   CLOUDY    28  25  86 SW3       30.04R
DANVILLE*      CLOUDY    30  25  80 SW3       30.04S
LEXINGTON      CLOUDY    30  23  75 S3        30.02S
FRANKFORT      CLOUDY    28  22  78 CALM      30.01F
LOUISVILLE     CLOUDY    33  26  75 SE5       30.01F WCI  29
LEBANON*         N/A     36  21  55 CALM      30.03R
GLASGOW*       CLOUDY    28  28 100 CALM      30.03S
BOWLING GREEN  CLOUDY    30  27  88 CALM      30.04S
$$

KYZ091>093-OHZ055-061-077-WVZ005-015-034-035-042-240900
...SOUTHERN OHIO/WEST VIRGINIA...

CITY           SKY/WX    TMP DP  RH WIND       PRES   REMARKS
COVINGTON      CLOUDY    28  26  92 S6        30.00S WCI  22
COLUMBUS       CLOUDY    31  25  78 SE3       30.00F
DAYTON         CLOUDY    33  26  75 S8        29.98F WCI  26
WILMINGTON     CLOUDY    28  24  85 S3        30.00S
HUNTINGTON     CLOUDY    27  22  81 CALM      30.02F
CHARLESTON     CLEAR     27  24  89 CALM      30.03F
PINEVILLE*       N/A     26  22  85 MISG      30.10R
BECKLEY        CLEAR     29  16  58 CALM      30.02R
BLUEFIELD      CLOUDY    33  18  53 W6        30.02S WCI  28
LOGAN CO APT*    N/A     32  23  69 CALM      30.04R
$$

VAZ002-007-008-TNZ017-027-036-066-071-240900
...SOUTHWEST VIRGINIA/EAST TENNESSEE...

CITY           SKY/WX    TMP DP  RH WIND       PRES   REMARKS
WISE*          CLEAR     36  25  64 CALM      30.03S
JONESVILLE*      N/A     27  27 100 CALM      30.08R
ABINGDON*      CLEAR     33  31  91 CALM      30.04R
BRISTOL        CLEAR     30  28  92 CALM      30.05R
MORRISTOWN*    SUNNY     34  30  86 CALM      30.04R
SEVIERVILLE*   PTSUNNY   30  30 100 CALM      30.05R
KNOXVILLE      CLEAR     35  34  96 CALM      30.04R
LAFOLLETTE*    SUNNY     28  28 100 CALM      30.08S
OAK RIDGE      CLEAR     32  31  96 CALM      30.06S
CROSSVILLE     CLOUDY    30  24  78 CALM      30.03R
NASHVILLE      CLEAR     30  27  88 S6        30.03F WCI  24
$$

...KEY TO REMARKS...
VSB - VISIBILITY IN MILES
WCI - WIND CHILL INDEX
HX  - HEAT INDEX

$$




USA.gov is the U.S. government's official web portal to all federal, state and local government web resources and services.